Terminal Aerodrome Forecast
Issued by NWS Austin/San Antonio, TX

Home | Current Version | Previous Version | Text Only | Print | Product List | Glossary On
Versions: 1 2 3 4 5 6 7 8 9 10 11 12 13 14 15 16 17 18
000
FTUS44 KEWX 061120
TAFDRT
TAF
KDRT 061120Z 0612/0712 11010KT P6SM OVC012
     FM062000 14013KT P6SM BKN025 BKN050
     FM062200 14015KT P6SM VCTS BKN040CB
     FM070300 13013KT P6SM BKN015
     FM070900 12012KT P6SM OVC007=

USA.gov is the U.S. government's official web portal to all federal, state and local government web resources and services.